www.pogodaiklimat.ru

Погода и климат >> Архив погоды >> Россия >> Якутия >> Томпо


АРХИВ ПОГОДЫ в Томпо

Время (UTC), дата Ветер
(напр.,м/с)
 
Видим.   Явления Облачность Т
(С)
Тd
(С)
f
(%)
Тe
(С)
Тes
(С)
Комфортность P
(гПа)
Po
(гПа)
Тmin
(С)
Tmax
(С)
R
(мм)
R24
(мм)
S
(см)
03 16.04 штиль 0 50 км 10/0
[Ac As Cs]
-4.6 -10.3 64 -5 +1 1006.3 956.4
06 16.04 штиль 0 50 км 10/0
[Ac As Cs]
-2.2 -10.3 54 -3 0 1005.2 955.7
09 16.04 штиль 0 4000 м слаб. ливневой снег 10/6 600 м
[Cb cap Ac As]
-3.2 -6.3 79 -4 -4 1005.6 955.9 -0.8 0.2
12 16.04 штиль 0 50 км {ливн. осадки} 10/8 1000 м
[Sc Ac und]
-5.1 -8.4 78 -6 -6 1006.3 956.2
15 16.04 С 1 10 км слаб. снег 10/0
[Ac As]
-5.3 -9.0 75 -7 -7 1004.9 954.9
18 16.04 С 1 10 км слаб. снег 10/0
[As op]
-6.7 -8.7 86 -9 -9 1003.6 953.4
21 16.04 С 1 4000 м снег 10/0
[As op]
-7.1 -8.8 88 -10 -9 1003.0 952.7 -7.2 2 30
00 17.04 С 1 4000 м снег 10/10 300 м
[Frnb Ns]
-5.4 -7.9 83 -8 -8 1002.5 952.6
03 17.04 СЗ 1 4000 м снег 10/10 300 м
[Frnb Ns]
-4.2 -6.8 82 -6 -6 1001.7 952.0
06 17.04 С 1 4000 м снег 10/10 300 м
[Frnb Ns]
-3.9 -6.1 85 -6 -6 1001.4 951.7
09 17.04 СЗ 1 4000 м снег 10/10 300 м
[Frnb Ns]
-4.3 -7.0 81 -7 -7 1002.2 952.5 -3.6 6
12 17.04 штиль 0 50 км {снег} 10/8 1000 м
[Sc As op]
-6.5 -9.7 78 -7 -7 1004.3 954.1
15 17.04 штиль 0 50 км 10/3 1000 м
[Sc Ac und]
-9.2 -11.2 85 -10 -10 1005.2 954.4
18 17.04 штиль 0 50 км 10/10 1000 м
[Sc]
-9.4 -11.5 85 -10 -10 1006.1 955.2
21 17.04 ЮВ 1 50 км 10/8 1000 м
[Sc Ac und]
-8.0 -10.7 81 -10 -10 1008.3 957.5 -10.2 0.3 36
00 18.04 Ю 1 10 км слаб. снег 10/0
[Ac As]
-6.9 -11.1 72 -9 -7 1010.8 960.1
03 18.04 ЮВ 2 50 км {снег} 8/0
[Ac trans Cs]
-5.4 -13.5 53 -9 -4 1013.0 962.6
06 18.04 Ю 2 50 км {снег} 8/0
[Ac trans Cc]
-4.3 -13.9 47 -8 -4 1014.4 964.1
09 18.04 Ю 1 50 км 6/0
[Ac trans Ci fib]
-4.8 -14.2 48 -7 -6 1016.7 966.1 -3.6 0.2
12 18.04 штиль 0 50 км 3/0
[Ac trans Ci fib]
-11.4 -17.6 60 -12 -12 1019.6 967.7
15 18.04 штиль 0 50 км 8/0
[Ac trans Cc]
-16.2 -19.6 75 -16 -16 1022.8 969.8
18 18.04 СЗ 1 50 км 3/0
[Ci fib]
-19.8 -22.4 80 -23 -23 1024.6 970.7
21 18.04 С 1 50 км 4/0
[Ac trans Ci fib]
-22.7 -25.2 80 -26 -25 1026.0 971.3 -22.9 36
00 19.04 штиль 0 50 км 3/0
[Ci fib]
-14.4 -18.7 70 -14 -7 1024.4 971.7
03 19.04 С 3 50 км 3/0
[Ci fib]
-7.6 -16.6 48 -13 -6 1021.1 969.9
06 19.04 С 2 50 км 3/0
[Ci fib]
-3.8 -14.8 42 -7 -2 1018.7 968.2
09 19.04 С 1 50 км 3/0
[Ci fib]
-3.4 -14.0 44 -5 -4 1017.8 967.5 -3.0
12 19.04 С 1 50 км 3/0
[Ci fib]
-11.1 -18.4 55 -13 -13 1019.4 967.5
15 19.04 С 1 50 км 3/0
[Ci fib]
-16.8 -20.2 75 -20 -20 1021.2 968.1
18 19.04 С 1 50 км 1/0
[Ci fib]
-19.9 -22.5 80 -23 -23 1022.5 968.7
21 19.04 СЗ 1 50 км 3/0
[Ci fib]
-25.2 -27.7 80 -29 -28 1024.3 969.3 -25.4 36
00 20.04 СЗ 2 50 км 8/0
[Ac trans Cs]
-15.2 -20.3 65 -20 -16 1021.9 969.1
03 20.04 С 2 50 км 9/0
[Ac trans Cs]
-8.1 -17.5 47 -12 -6 1018.1 966.9
06 20.04 С 2 50 км 9/0
[Ac trans Cs]
-3.2 -15.5 38 -6 -3 1014.1 964.0
09 20.04 С 1 50 км 10/0
[Ac trans Cs]
-1.7 -13.1 41 -3 -2 1011.6 961.8 -1.4
12 20.04 штиль 0 50 км 10/0
[Ac und]
-3.0 -12.2 49 -3 -3 1011.7 961.7
15 20.04 штиль 0 50 км 10/0
[Ac und]
-4.2 -11.6 56 -5 -5 1012.0 961.8
18 20.04 штиль 0 10 км слаб. снег 10/0
[Ac As]
-7.6 -10.9 77 -8 -8 1012.4 961.6
21 20.04 штиль 0 50 км в посл. час снег 8/0
[Ac As]
-6.6 -9.0 83 -7 -7 1011.4 960.9 -8.0 0.5 36
00 21.04 штиль 0 4000 м снег 10/10 300 м
[Frnb Ns]
-4.0 -7.0 80 -5 -5 1010.3 960.2
03 21.04 Ю 3 50 км {снег} 9/5 1000 м
[Sc Ac trans Ci fib]
+1.6 -5.9 57 -2 0 1008.4 959.4
06 21.04 Ю 2 50 км {снег} 9/8 600 м
[Cu Sc Ci fib]
+3.8 -6.6 47 +2 +3 1006.8 958.3
09 21.04 Ю 2 50 км 8/5 600 м
[Cu Sc Cc]
+5.4 -8.1 37 +4 +4 1006.3 958.1 +5.9 0.4
12 21.04 Ю 1 50 км 10/10 1000 м
[Sc]
+2.2 -7.0 51 +1 +1 1008.1 959.3
15 21.04 Ю 3 50 км 10/10 1000 м
[Sc]
+0.9 -7.1 55 -3 -3 1008.9 959.7
18 21.04 штиль 0 50 км 8/3 1000 м
[Sc Ac trans Ci fib]
-1.3 -5.7 72 -2 -2 1009.6 960.1
21 21.04 штиль 0 50 км 6/3 1000 м
[Sc Ci fib]
-3.6 -6.1 83 -5 -4 1010.1 960.2 -3.8 34
00 22.04 штиль 0 50 км 8/4 1000 м
[Sc Ci fib]
-0.7 -4.8 74 -2 +3 1009.6 960.2 -4.1
03 22.04 Ю 3 50 км 9/5 1000 м
[Sc Ac trans Ci fib]
+3.0 -5.8 52 -0 +2 1008.3 959.5
06 22.04 Ю 3 50 км 9/6 1000 м
[Sc Ac trans Ci fib]
+2.8 -6.5 50 -1 +1 1008.4 959.6
09 22.04 Ю 2 50 км 9/6 600 м
[Cu Sc Cc]
+2.5 -7.8 47 0 0 1008.3 959.5 +4.7
12 22.04 штиль 0 50 км 8/3 1000 м
[Sc Cs]
-1.3 -7.6 62 -2 -2 1009.9 960.4
15 22.04 штиль 0 50 км 9/5 1000 м
[Sc Ac trans Ci fib]
-3.2 -6.7 77 -4 -4 1010.8 960.9
18 22.04 штиль 0 10 км слаб. снег 9/3 1000 м
[Sc Ac As]
-5.6 -8.2 82 -6 -6 1011.5 961.1
21 22.04 штиль 0 10 км слаб. снег 10/4 1000 м
[Sc Ac As]
-5.7 -7.9 84 -7 -6 1011.8 961.4 -6.1 0.3 32

 

Местоположение метеостанции Томпо (Якутия, Россия): широта 63.95 долгота 135.80 высота над уровнем моря 402 м.

В архиве по умолчанию представлена погода в Томпо за последнюю неделю. Архивные данные за месяц целиком и за предыдущие месяцы, начиная с января 2011 года, Вы можете получить, выбрав интересующий диапазон дат из раскрывающегося списка и нажав кнопку "Ввод!".


*Определитесь, кто Вы:
робот инопланетянин человек

Внимание! Время в таблицах - всемирное. Для получения местного времени необходимо прибавить поправку, которая равна 9 ч.

Смотрите также архив погоды в соседних городах и на ближайших метеорологических станциях:

Погода в Теплом Ключе (Якутия, Россия) (139 км)
Погода в Крест-Хальджае (Якутия, Россия) (144 км)
Погода в Иэме (Якутия, Россия) (150 км)
Погода в Верхоянском Перевозе (Якутия, Россия) (200 км)
Погода в Восточной (Якутия, Россия) (204 км)
Погода в Ытык-Кюёле (Якутия, Россия) (210 км)
Погода в Охотском Перевозе (Якутия, Россия) (232 км)
Погода в Чурапче (Якутия, Россия) (268 км)
Погода в Сеген-Кюеле (Якутия, Россия) (268 км)
Погода в Юртах (Якутия, Россия) (293 км)

Пояснения к столбцам:

Ветер - указаны скорость ветра в м/с - средняя за 10 мин, порывы в срок и между сроками (в фигурных скобках) и направление, откуда дует ветер: С - северный, СВ - северо-восточный, В - восточный, ЮВ - юго-восточный, Ю - южный, ЮЗ - юго-западный, З - западный, СЗ - северо-западный.
Видимость - горизонтальная дальность видимости в метрах или километрах. При видимости от 1 до 10 км при отсутствии осадков обычно наблюдается дымка, при ухудшении видимости до 1 км и менее - туман. В сухую погоду видимость может ухудшаться дымом, пылью или мглою.
Явления - указаны атмосферные явления, наблюдавшиеся в срок или в последний час перед сроком; фигурными скобками обозначены явления, наблюдавшиеся между сроками (за 1-3 часа до срока); квадратными скобками обозначены град или гололедные отложения с указанием их диаметра в мм.
Облачность - указаны через наклонную черту общая и нижняя облачность в баллах и высота нижней границы облаков в метрах; квадратными скобками обозначены формы облаков: Ci - перистые, Cs - перисто-слоистые, Cc - перисто-кучевые, Ac - высококучевые, As - высокослоистые, Sc - слоисто-кучевые, Ns - слоисто-дождевые, Cu - кучевые, Cb - кучево-дождевые. Подробнее классификацию облаков см. в Атласе облаков (PDF).
T - Температура воздуха - температура, измеренная на высоте 2 м над землей.
Td - Температура точки росы - температура, при понижении до которой содержащийся в воздухе водяной пар достигнет насыщения.
f - Относительная влажность воздуха - влажноcть воздуха, измеренная на высоте 2 м над землей.
Te - Эффективная температура - температура, которую ощущает одетый по сезону человек в тени. Характеристика душности погоды. При расчете учитывается влияние влажности воздуха и скорости ветра на теплоощущения человека.
Tes - Эффективная температура на солнце - температура, которую ощущает человек, с поправкой на солнечный нагрев. Характеристика знойности погоды. Зависит от высоты солнца над горизонтом, облачности и скорости ветра. Ночью, в пасмурную погоду, а также при ветре 12 м/с и более поправка равна нулю.
P - Атмосферное давление - приведенное к уровню моря атмосферное давление.
Po - Атмосферное давление - измеренное на уровне метеостанции атмосферное давление.
Tmin - Минимальная температура - минимум температуры воздуха на высоте 2 м над землей.
Tmax - Максимальная температура - максимум температуры воздуха на высоте 2 м над землей.
R - Количество осадков - Количество выпавших осадков за период времени, мм. При наведении курсора мыши на число - период времени, за который выпало указанное количество осадков.
R24 - Количество осадков - Количество выпавших осадков за 24 часа, мм.
S - Снежный покров - Высота снежного покрова, см. При наведении курсора мыши на число - состояние снежного покрова и степень покрытия местности в баллах.